Regional Weather Roundup
Issued by NWS Raleigh/Durham, NC

Home | Current Version | Previous Version | Text Only | Print | Product List | Glossary On
Versions: 1 2 3 4 5 6 7 8 9 10 11 12 13 14 15 16 17 18 19 20 21 22 23 24 25 26 27 28 29 30 31 32 33 34 35 36 37 38 39 40 41 42 43 44 45 46 47 48 49 50
000
ASUS42 KRAH 292010
RWRRAH
NORTH CAROLINA WEATHER ROUNDUP
NATIONAL WEATHER SERVICE RALEIGH NC
300 PM EST THU JAN 29 2015

NOTE: "FAIR" INDICATES FEW OR NO CLOUDS BELOW 12,000 FEET WITH NO
SIGNIFICANT WEATHER AND/OR OBSTRUCTIONS TO VISIBILITY.

NCZ001-053-055-056-065-067-292100-
WESTERN NORTH CAROLINA

CITY           SKY/WX    TMP DP  RH WIND       PRES   REMARKS
ASHEVILLE      MOSUNNY   50  26  39 S16       30.05F
JEFFERSON      PTSUNNY   40  22  47 S6        30.00F
MORGANTON      PTSUNNY   42  27  53 CALM      30.14F
HICKORY        PTSUNNY   45  24  43 S12G20    30.10F
RUTHERFORDTON  CLOUDY    48  26  42 S12G20    30.11F
MOUNT AIRY     CLOUDY    45  26  46 SW10G17   30.11F
BOONE          SUNNY     40  23  50 S12G18    30.02F WCI  33
$$

NCZ021-022-025-041-071-084-088-292100-
CENTRAL NORTH CAROLINA

CITY           SKY/WX    TMP DP  RH WIND       PRES   REMARKS
CHARLOTTE      LGT RAIN  47  22  37 S9        30.15F
GREENSBORO     LGT RAIN  43  28  55 SW9       30.11F
WINSTON-SALEM  CLOUDY    44  23  43 S9        30.12F
RALEIGH-DURHAM PTSUNNY   46  16  30 SW9       30.19F
FORT BRAGG     CLOUDY    49  16  26 VRB6      30.20F
FAYETTEVILLE   CLOUDY    50  16  25 S8        30.21F
BURLINGTON     CLOUDY    47  17  30 VRB5      30.14F
LAURINBURG     CLOUDY    50  18  28 SW9       30.22F
$$

NCZ011-015-027-028-043-044-047-080-103-292100-
NORTHEASTERN NORTH CAROLINA

CITY           SKY/WX    TMP DP  RH WIND       PRES   REMARKS
ROCKY MT-WILSO CLOUDY    46  16  30 SW8       30.21F
GREENVILLE     CLOUDY    46  18  31 SW7       30.23F
WASHINGTON     CLOUDY    44  15  31 S3        30.24F
ELIZABETH CITY PTSUNNY   40  18  41 SW6       30.23F
MANTEO         CLOUDY    37  25  60 W5        30.24S WCI  34
CAPE HATTERAS  CLOUDY    38  26  62 W6        30.25S WCI  33
$$

NCZ078-087-090-091-093-098-101-292100-
SOUTHEASTERN NORTH CAROLINA

CITY           SKY/WX    TMP DP  RH WIND       PRES   REMARKS
LUMBERTON      CLOUDY    51  20  29 S9        30.22F
GOLDSBORO      CLOUDY    48  18  30 S9        30.20F
KINSTON        CLOUDY    48  14  25 SW5       30.24F
KENANSVILLE    PTSUNNY   48  13  25 CALM      30.24F
NEW BERN       CLOUDY    49  16  26 CALM      30.25F
CHERRY POINT   PTSUNNY   49  12  22 W5        30.25F
BEAUFORT       MOSUNNY   43  26  51 S8        30.25F
JACKSONVILLE   PTSUNNY   47  21  35 S9        30.24F
WILMINGTON     PTSUNNY   48  25  40 SE9       30.24F
$$




USA.gov is the U.S. government's official web portal to all federal, state and local government web resources and services.